Probability
0 0 0 0 0 0 0 0 0 0 0 0 0 0 0 0 0 0 0 0 0 0 0 0 0 0 0 0 0 0 0 0 0 0 0 0 0 0 0 0 0 0 0
0 0 0 0 0 0 0 0 0 0 0 0 0 0 0 0 0 0 0 0 0 0 0 0 0 0 0 0 0 0 0 0 0 0 0 0 0 0 0 0 0 0 0
0 0 0 0 0 0 0 0 0 0 0 0 0 0 0 0 0 0 0 0 0 0 0 0 0 0 0 0 0 0 0 0 0 0 0 0 0 0 0 0 0 0 0
0 0 0 0 0 0 0 0 0 0 0 0 0 0 0 0 0 0 0 0 0 0 0 0 0 0 0 0 0 0 0 0 0 0 0 0 0 0 0 0 0 0 0
0 0 0 0 0 0 0 0 0 0 0 0 0 0 0 0 0 0 0 0 0 0 0 0 0 0 0 0 0 0 0 0 0 0 0 0 0 0 0 0 0 0 0
0 0 0 0 0 0 0 0 0 0 0 0 0 0 0 0 0 0 0 0 0 0 0 0 0 0 0 0 0 0 0 0 0 0 0 0 0 0 0 0 0 0 0
0 0 0 0 0 0 0 0 0 0 0 0 0 0 0 0 0 0 0 0 0 0 0 0 0 0 0 0 0 0 0 0 0 0 0 0 0 0 0 0 0 0 0
0 0 0 0 0 0 0 0 0 0 0 0 0 0 0 0 0 0 0 0 0 0 0 0 0 0 0 0 0 0 0 0 0 0 0 0 0 0 0 0 0 0 0
0 0 0 0 0 0 0 0 0 0 0 0 0 0 0 0 0 0 0 0 0 0 0 0 0 0 0 0 0 0 0 0 0 0 0 0 0 0 0 0 0 0 0
0 0 0 0 0 0 0 0 0 0 0 0 0 0 0 0 0 0 0 0 0 0 0 0 0 0 0 0 0 0 0 0 0 0 0 0 0 0 0 0 0 0 0
0 0 0 0 0 0 0 0 0 0 0 0 0 0 0 0 0 0 0 0 0 0 0 0 0 0 0 0 0 0 0 0 0 0 0 0 0 0 0 0 0 0 0
0 0 0 0 0 0 0 0 0 0 0 0 0 0 0 0 0 0 0 0 0 0 0 0 0 0 0 0 0 0 0 0 0 0 0 0 0 0 0 0 0 0 0
0 0 0 0 0 0 0 0 0 0 0 0 0 0 0 0 0 0 0 0 0 0 0 0 0 0 0 0 0 0 0 0 0 0 0 0 0 0 0 0 0 0 0
0 0 0 0 0 0 0 0 0 0 0 0 0 0 0 0 0 0 0 0 0 0 0 0 0 0 0 0 0 0 0 0 0 0 0 0 0 0 0 0 0 0 0
0 0 0 0 0 0 0 0 0 0 0 0 0 0 0 0 0 0 0 0 0 0 0 0 0 0 0 0 0 0 0 0 0 0 0 0 0 0 0 0 0 0 0
0 0 0 0 0 0 0 0 0 0 0 0 0 0 0 0 0 0 0 0 0 0 0 0 0 0 0 0 0 0 0 0 0 0 0 0 0 0 0 0 0 0 0
0 0 0 0 0 0 0 0 0 0 0 0 0 0 0 0 0 0 0 0 0 0 0 0 0 0 0 0 0 0 0 0 0 0 0 0 0 0 0 0 0 0 0
0 0 0 0 0 0 0 0 0 0 0 0 0 0 0 0 0 0 0 0 0 0 0 0 0 0 0 0 0 0 0 0 0 0 0 0 0 0 0 0 0 0 0
0 0 0 0 0 0 0 0 0 0 0 0 0 0 0 0 0 0 0 0 0 0 0 0 0 0 0 0 0 0 0 0 0 0 0 0 0 0 0 0 0 0 0
0 0 0 0 0 0 0 0 0 0 0 0 0 0 0 0 0 0 0 0 0 0 0 0 0 0 0 0 0 0 0 0 0 0 0 0 0 0 0 0 0 0 0
0 0 0 0 0 0 0 0 0 0 0 0 0 0 0 0 0 0 0 0 0 0 0 0 0 0 0 0 0 0 0 0 0 0 0 0 0 0 0 0 0 0 0
0 0 0 0 0 0 0 0 0 0 0 0 0 0 0 0 0 0 0 0 0 0 0 0 0 0 0 0 0 0 0 0 0 0 0 0 0 0 0 0 0 0 0
0 0 0 0 0 0 0 0 0 0 0 0 0 0 0 0 0 0 0 0 0 0 0 0 0 0 0 0 0 0 0 0 0 0 0 0 0 0 0 0 0 0 0
0 0 0 0 0 0 0 0 0 0 0 0 0 0 0 0 0 0 0 0 0 0 0 0 0 0 0 0 0 0 0 0 0 0 0 0 0 0 0 0 0 0 0
0 0 0 0 0 0 0 0 0 0 0 0 0 0 0 0 0 0 0 0 0 0 0 0 0 0 0 0 0 0 0 0 0 0 0 0 0 0 0 0 0 0 0
0 0 0 0 0 0 0 0 0 0 0 0 0 0 0 0 0 0 0 0 0 0 0 0 0 0 0 0 0 0 0 0 0 0 0 0 0 0 0 0 0 0 0
Wind_Speed
4 3 2 2 2 3 3 3 3 3 4 4 4 4 3 3 2 2 1 1 1 1 2 4 5 5 5 5 5 5 6 6 6 4 2 2 4 4 4 5 5 6 6
3 2 2 2 2 2 2 2 3 3 4 4 4 4 4 4 3 3 2 2 1 1 1 2 3 3 5 5 5 7 7 7 6 6 3 3 4 3 3 4 5 6 5
3 2 2 2 2 2 2 2 3 4 4 4 4 4 4 4 4 4 3 3 2 2 2 2 2 2 3 4 5 6 6 7 6 5 4 2 2 2 2 3 4 4 5
3 2 2 2 2 2 2 2 3 4 4 4 4 5 4 4 4 4 4 3 3 2 2 2 2 2 3 3 3 4 5 6 6 5 4 3 2 2 2 3 3 4 5
3 2 1 1 1 1 1 1 2 2 4 4 4 5 4 4 5 6 5 5 4 3 3 2 2 3 4 3 2 2 3 4 4 5 5 4 4 3 3 3 3 2 4
8 6 5 4 4 4 3 2 2 2 2 2 4 4 4 4 7 10 8 5 5 5 4 3 3 4 5 5 5 5 4 3 3 3 4 5 5 4 3 3 3 2 3
8 8 7 7 7 7 6 5 5 4 2 2 2 2 4 5 8 8 11 6 5 5 5 4 3 3 4 3 5 6 5 6 5 2 2 3 4 5 5 4 4 4 3
8 8 8 8 7 7 7 7 6 4 4 3 3 3 3 4 6 7 8 6 5 5 5 5 4 4 4 4 4 4 4 4 5 4 3 3 2 2 3 3 3 3 2
7 7 7 6 7 7 7 6 5 5 5 4 4 4 4 5 7 4 3 3 4 4 4 5 5 5 7 6 4 4 5 5 6 7 6 5 5 5 4 2 2 2 2
6 5 5 6 6 6 6 5 4 4 5 5 6 6 6 6 10 9 2 1 2 2 2 4 7 7 7 6 5 5 6 5 3 3 4 5 4 4 5 4 3 3 2
4 5 6 6 5 5 5 5 5 5 6 6 6 6 7 8 11 13 9 1 1 1 1 2 2 6 7 6 7 6 7 4 3 3 2 1 1 1 1 2 3 3 3
3 4 5 5 5 5 5 5 6 6 6 6 6 6 5 6 9 11 12 9 4 0 1 1 2 5 4 4 3 5 6 4 2 2 2 1 1 0 0 0 1 1 2
2 3 3 4 4 5 5 5 5 5 5 5 5 5 5 5 6 12 12 11 8 3 1 3 3 2 2 2 1 3 4 3 3 2 2 1 1 1 1 1 2 2 2
1 2 2 3 4 4 4 4 4 5 5 5 5 5 5 5 5 5 5 5 5 4 2 3 6 7 5 5 6 4 3 3 2 2 2 1 1 1 1 1 1 2 2
0 1 2 2 2 2 3 3 3 3 4 4 3 4 5 5 7 11 6 4 3 2 1 2 2 2 3 3 4 4 3 3 3 2 2 2 1 1 1 1 1 1 1
1 1 1 1 2 1 1 1 1 2 4 5 6 6 4 6 10 10 10 8 5 3 2 2 3 3 3 3 3 3 3 3 2 2 2 2 1 1 1 1 0 0 1
2 1 1 1 2 2 2 2 2 3 3 4 7 9 9 9 10 10 10 10 10 7 5 4 4 4 4 4 4 3 3 3 2 3 2 2 1 1 1 1 1 1 2
2 2 2 1 1 2 2 2 2 3 3 4 6 9 11 12 12 12 11 9 8 8 6 6 6 5 5 5 4 4 4 4 4 3 3 3 2 2 1 1 1 1 2
3 2 2 1 1 2 2 3 3 3 3 3 4 5 10 9 11 14 11 7 7 7 7 6 6 5 5 5 4 4 4 4 4 3 3 3 3 2 2 2 2 3 2
3 4 4 2 2 2 2 3 3 3 3 4 4 4 5 5 6 7 7 6 6 6 5 5 5 5 5 5 4 4 4 4 4 4 3 3 3 2 2 3 3 3 3
3 3 4 3 2 2 2 2 3 3 3 3 4 5 6 5 5 6 5 5 5 5 5 5 5 5 5 5 4 5 5 4 4 4 3 3 3 3 3 3 3 3 3
4 3 2 2 2 2 2 2 2 2 3 3 3 4 7 5 4 4 4 4 5 5 4 4 4 5 5 4 4 4 4 4 4 4 4 3 3 3 3 3 3 4 4
4 4 3 2 2 3 3 2 2 2 2 3 3 3 3 3 3 4 4 4 4 5 5 4 4 4 4 4 3 3 3 3 4 4 4 3 3 3 3 3 4 4 4
4 4 4 3 2 2 2 2 2 2 2 2 2 2 2 3 3 3 3 4 4 4 4 4 4 5 6 4 3 3 3 4 4 3 4 3 3 3 3 3 4 5 4
3 4 4 3 3 3 2 2 2 2 2 2 2 2 2 2 2 2 3 3 4 4 4 4 3 4 5 6 5 5 6 7 7 4 3 3 4 4 4 4 3 4 4
3 3 3 3 3 3 3 3 3 3 3 2 2 2 2 2 2 2 2 3 2 3 3 3 4 5 5 5 6 7 7 7 8 8 4 3 4 4 4 4 5 5 5
Wind_Direction
219 200 179 177 173 164 164 167 165 165 163 161 164 168 174 176 173 167 189 187 196 216 213 206 211 203 205 208 204 199 200 198 225 240 229 216 193 201 198 193 199 207 217
203 177 154 153 145 143 149 156 164 172 180 181 175 178 182 183 182 183 197 183 179 207 228 219 225 216 212 211 208 209 209 205 213 229 225 209 210 202 189 193 201 210 214
194 165 147 153 153 159 173 175 179 187 192 194 189 193 196 192 189 192 193 189 188 202 210 215 232 226 226 220 216 216 214 209 207 214 213 190 177 153 156 195 201 208 213
166 157 161 180 199 203 202 201 202 197 198 205 210 211 209 201 195 191 191 193 192 198 202 204 212 218 235 239 233 229 218 212 208 211 205 186 178 159 163 184 204 207 220
90 78 47 352 353 11 340 293 261 228 220 211 214 220 215 207 204 193 193 194 195 201 206 211 218 226 233 230 229 231 223 226 219 213 208 192 188 175 192 184 205 195 225
53 42 29 27 29 23 2 340 329 307 267 228 222 223 220 226 222 205 190 191 195 202 213 225 240 249 259 260 252 232 214 218 229 229 219 211 204 189 170 171 171 163 249
45 37 29 28 30 23 18 19 11 356 346 309 267 244 244 250 251 234 209 189 194 202 207 214 232 237 247 247 263 261 247 235 223 209 224 222 193 183 171 176 183 190 215
34 28 23 23 23 19 23 21 11 7 7 357 346 325 296 293 280 253 230 200 197 204 204 206 221 247 245 235 240 250 251 245 233 220 208 198 178 161 166 178 193 211 225
25 19 14 16 19 19 18 9 4 7 12 10 7 8 3 345 346 314 249 186 200 211 207 208 214 237 253 242 221 238 256 258 247 232 219 214 207 207 203 192 202 215 241
11 8 9 15 22 21 14 11 8 17 20 24 30 26 24 11 9 10 349 167 195 205 206 219 228 236 254 246 210 216 238 248 228 224 229 232 227 231 230 222 215 221 224
6 17 19 18 26 26 26 24 23 27 31 30 28 23 22 15 12 17 23 41 211 215 223 235 247 259 267 261 218 210 224 213 191 189 188 194 194 203 217 222 217 218 222
28 30 24 21 25 28 33 31 29 30 34 25 18 14 11 7 9 10 16 19 18 329 276 281 280 292 293 286 225 212 211 177 142 138 138 144 148 161 118 9 317 274 261
44 30 17 20 26 28 35 31 30 30 31 23 17 11 1 357 359 8 11 11 12 14 347 328 326 341 29 23 67 149 143 137 134 133 142 140 101 69 58 45 28 19 11
58 16 9 14 19 28 33 31 33 28 23 18 13 5 356 352 354 356 355 355 359 11 22 45 63 70 69 65 63 68 76 104 115 119 115 96 72 64 53 41 31 18 11
189 4 10 11 16 30 39 29 22 23 11 3 357 353 351 351 344 342 344 338 336 340 31 62 60 62 62 57 57 57 56 63 72 79 91 88 76 62 40 36 46 43 10
214 341 7 1 8 34 37 18 357 342 354 6 5 0 337 335 340 356 3 7 15 41 62 65 67 67 64 59 60 57 52 53 58 76 85 88 84 57 12 1 356 305 296
187 166 64 28 22 32 49 50 23 352 351 4 9 11 14 9 17 21 21 31 42 50 55 55 56 57 60 58 53 58 52 41 52 63 65 55 47 33 18 355 341 325 314
162 143 120 79 53 63 68 63 55 39 12 352 355 14 23 31 35 34 31 39 41 42 46 50 52 51 52 53 50 49 49 44 45 48 46 40 32 28 19 355 334 310 303
152 140 121 102 86 88 79 69 61 53 39 11 1 5 13 26 37 37 38 46 46 45 45 47 47 48 48 49 49 49 51 50 45 43 37 30 23 20 7 344 324 308 293
152 154 137 118 101 91 79 75 66 57 46 34 28 12 4 31 39 33 37 42 48 48 47 48 47 46 45 44 45 46 47 44 38 33 23 16 10 8 355 342 333 324 309
140 141 130 112 112 114 101 95 87 77 63 52 37 33 51 55 50 45 43 42 42 41 41 45 44 39 36 34 34 34 36 31 21 11 4 360 359 358 351 343 336 330 324
136 134 130 130 126 127 123 117 106 92 78 69 48 42 54 57 52 52 47 43 40 36 33 41 47 41 34 29 25 24 22 15 3 352 347 346 351 355 354 354 352 348 349
140 139 134 129 127 129 120 120 121 112 98 88 80 67 60 59 53 49 46 45 45 41 34 38 43 35 25 22 19 16 5 352 338 332 336 346 360 4 4 3 2 2 2
152 151 149 144 137 137 140 141 141 134 124 112 101 92 85 80 74 64 55 53 53 45 36 33 34 29 24 16 10 7 358 344 331 334 353 13 20 18 16 17 14 8 3
161 158 157 158 157 158 157 155 155 151 143 137 132 125 114 107 102 92 78 71 68 53 39 29 19 14 11 10 7 3 5 18 26 24 30 44 41 34 31 24 19 15 13
175 169 164 161 163 167 170 172 173 166 159 154 153 151 146 135 126 114 99 91 80 55 37 22 12 14 7 360 357 6 23 36 42 45 48 50 47 41 39 37 34 33 29